Weather History for KGLH - April, 2013

Change the Weather History Date:

Tuesday, April 23, 2013

  Actual Average Record
Temperature  
Mean Temperature 69 °F 66 °F  
Max Temperature 79 °F 77 °F 90 °F (1925)
Min Temperature 59 °F 55 °F 39 °F (1931)
Degree Days  
Heating Degree Days 0 2  
Month to date heating degree days 141 105  
Since 1 July heating degree days 2619 2750  
Cooling Degree Days 4 3  
Month to date cooling degree days 58 39  
Year to date cooling degree days 70 61  
Growing Degree Days 18 (Base 50)    
Moisture  
Dew Point 60 °F    
Average Humidity 74    
Maximum Humidity 90    
Minimum Humidity 58    
Precipitation  
Precipitation 0.00 in 0.14 in 2.35 in (1995)
Month to date precipitation 3.30 3.82  
Year to date precipitation 20.51 18.36  
Sea Level Pressure  
Sea Level Pressure 30.00 in    
Wind  
Wind Speed 12 mph (SSE)    
Max Wind Speed 22 mph    
Max Gust Speed 30 mph    
Visibility 10 miles    
Events      
T = Trace of Precipitation, MM = Missing Value Source: NWS Daily Summary

Daily Weather History Graph

Daily Weather History Graph

Search for Another Location

Airport or City:

Trip Planner

Search our weather history database for the weather conditions in past years. The results will help you decide how hot, cold, wet, or windy it might be!

Date:

Astronomy

Apr. 23, 2013 Rise Set
Actual Time 6:23 AM CDT 7:41 PM CDT
Civil Twilight 5:57 AM CDT 8:07 PM CDT
Nautical Twilight 5:26 AM CDT 8:38 PM CDT
Astronomical Twilight 4:54 AM CDT 9:10 PM CDT
Moon 5:41 PM CDT (4/23) 4:45 AM CDT (4/23)
Length of Visible Light 14h 09m
Length of Day
13h 17m
Waxing Gibbous, 94% of the Moon is Illuminated
Apr 23
Waxing Gibbous
Apr 25
Full
May 2
Last Quarter
May 9
New
May 17
First Quarter

Hourly Weather History & Observations

Time (CDT) Temp. Dew Point Humidity Pressure Visibility Wind Dir Wind Speed Gust Speed Precip Events Conditions
12:53 AM 57.9 °F 52.0 °F 81% 30.03 in 10.0 mi SE 6.9 mph - N/A   Clear
1:53 AM 61.0 °F 55.0 °F 81% 30.02 in 10.0 mi SE 9.2 mph - N/A   Clear
2:53 AM 62.1 °F 55.9 °F 80% 30.01 in 10.0 mi SE 10.4 mph - N/A   Clear
3:53 AM 61.0 °F 55.9 °F 83% 30.01 in 10.0 mi SSE 8.1 mph - N/A   Clear
4:53 AM 61.0 °F 57.0 °F 87% 30.03 in 10.0 mi SSE 10.4 mph - N/A   Clear
5:31 AM 60.8 °F 57.2 °F 88% 30.01 in 10.0 mi SSE 13.8 mph - N/A   Mostly Cloudy
5:53 AM 62.1 °F 57.9 °F 86% 30.03 in 10.0 mi South 10.4 mph - N/A   Overcast
6:06 AM 62.6 °F 59.0 °F 88% 30.02 in 10.0 mi SSE 8.1 mph - N/A   Overcast
6:53 AM 62.1 °F 59.0 °F 90% 30.06 in 10.0 mi South 6.9 mph - N/A   Overcast
7:25 AM 64.4 °F 59.0 °F 83% 30.04 in 10.0 mi SSE 8.1 mph - N/A   Overcast
7:53 AM 64.0 °F 60.1 °F 87% 30.06 in 10.0 mi South 8.1 mph - N/A   Overcast
8:53 AM 66.0 °F 60.1 °F 81% 30.06 in 10.0 mi SSE 12.7 mph - N/A   Overcast
9:53 AM 69.1 °F 61.0 °F 75% 30.06 in 10.0 mi South 15.0 mph - N/A   Overcast
10:53 AM 73.0 °F 62.1 °F 68% 30.06 in 10.0 mi South 16.1 mph 21.9 mph N/A   Partly Cloudy
11:53 AM 73.0 °F 62.1 °F 68% 30.05 in 10.0 mi SSW 15.0 mph - N/A   Overcast
12:53 PM 75.0 °F 62.1 °F 64% 30.03 in 10.0 mi South 15.0 mph 21.9 mph N/A   Mostly Cloudy
1:53 PM 75.0 °F 63.0 °F 66% 30.01 in 10.0 mi SSW 16.1 mph - N/A   Mostly Cloudy
2:53 PM 75.9 °F 62.1 °F 62% 29.99 in 10.0 mi South 15.0 mph 21.9 mph N/A   Mostly Cloudy
3:53 PM 77.0 °F 63.0 °F 62% 29.96 in 10.0 mi South 16.1 mph 24.2 mph N/A   Mostly Cloudy
4:53 PM 79.0 °F 63.0 °F 58% 29.94 in 10.0 mi South 16.1 mph 24.2 mph N/A   Mostly Cloudy
5:53 PM 77.0 °F 63.0 °F 62% 29.92 in 10.0 mi South 15.0 mph - N/A   Scattered Clouds
6:53 PM 75.0 °F 62.1 °F 64% 29.92 in 10.0 mi South 11.5 mph - N/A   Mostly Cloudy
7:53 PM 72.0 °F 63.0 °F 73% 29.93 in 10.0 mi South 5.8 mph - N/A   Mostly Cloudy
8:53 PM 71.1 °F 63.0 °F 75% 29.95 in 10.0 mi SSE 4.6 mph - N/A   Overcast
9:53 PM 72.0 °F 63.0 °F 73% 29.96 in 10.0 mi SSE 8.1 mph - N/A   Scattered Clouds
10:53 PM 72.0 °F 63.0 °F 73% 29.95 in 10.0 mi SSE 10.4 mph - N/A   Scattered Clouds
11:53 PM 70.0 °F 63.0 °F 78% 29.95 in 10.0 mi South 11.5 mph - N/A   Clear